{"data":{"norad_id":52542,"intl_designator":"2022-051K","name":"STARLINK-3937","alt_names":[],"object_type":"PAYLOAD","status":"ACTIVE","operator":null,"country":"US","launch_date":"2022-05-13","launch_site_code":"AFWTR","launch_vehicle":null,"mission":null,"orbit_class":"UNKNOWN","rcs_meters":null,"size_class":null,"mass_kg":null,"dimensions":null,"purposes":["comms"],"wikipedia_slug":null,"has_3d_model":false,"image_url":null,"decayed_at":null,"tle_current":{"epoch":"2026-09-19T21:27:56.720736Z","epoch_age_seconds":115682,"freshness":"FRESH","line1":"1 52542U 22051K   26262.89440649  .00003286  00000+0  10842-3 0  9996","line2":"2 52542  53.1603 320.4859 0001255  93.1248 266.9898 15.34376804240992","mean_motion":15.34376804,"eccentricity":0.0001255,"inclination_deg":53.1603,"raan_deg":320.4859,"arg_perigee_deg":93.1248,"mean_anomaly_deg":266.9898,"bstar":0.00010842,"rev_number":24099,"period_min":93.849176828406,"perigee_km":461.91365037333,"apogee_km":463.63071857864,"semimajor_km":6840.909184476,"source":"CELESTRAK","updated_at":"2026-09-20T09:00:40.059896Z"}}}